Date String (YYYY-MM-DD hh:mm:ss) UTC,Instrument flags,Ambient pressure (hPa),Sample flow (lpm),Bypass flow (lpm),Sample temperature (°C),Ambient temperature (°C),ASC tube jacket temperature (°C),LED temperature (°C),Box temperature (°C),Sample RH (%),Span deviation,Mass concentration (μg/m³),Mass concentration (μg/m³),Mass concentration (μg/m³)
DateTimeUTC,F1_M11,P_M11,Q1_M11,Q2_M11,T1_M11,T2_M11,T3_M11,T4_M11,T5_M11,U1_M11,ZSPAN_M11,X0_M11,X2_M11,X1_M11
2022-07-03 12:00:00,,0825.6,5.00,0.00,30.0,29.0,00.0,38.8,32.0,23.5,0000.0,0009.41,0004.73,0003.98
2022-07-03 12:01:00,,0825.6,5.00,0.00,30.0,29.0,00.0,38.8,32.0,23.4,0000.0,0009.29,0004.70,0003.97
2022-07-03 12:02:00,,0825.6,5.01,0.00,30.1,29.0,00.0,38.8,32.0,23.1,0000.0,0009.23,0004.65,0003.95
2022-07-03 12:03:00,,0825.6,5.00,0.00,30.1,29.0,00.0,38.8,32.0,23.1,0000.0,0009.03,0004.58,0003.93
2022-07-03 12:04:00,,0825.6,4.99,0.00,30.1,29.0,00.0,38.8,32.0,23.4,0000.0,0009.21,0004.59,0003.91
2022-07-03 12:05:00,,0825.6,5.01,0.00,30.1,29.1,00.0,38.8,32.0,23.5,0000.0,0008.89,0004.56,0003.91
2022-07-03 12:06:00,,0825.6,5.00,0.00,30.1,29.1,00.0,38.9,32.0,23.6,0000.0,0008.28,0004.56,0003.91
2022-07-03 12:07:00,,0825.6,5.00,0.00,30.1,28.8,00.0,38.8,32.0,23.7,0000.0,0008.19,0004.55,0003.90
2022-07-03 12:08:00,,0825.6,4.99,0.00,30.1,28.0,00.0,38.8,31.9,23.8,0000.0,0008.05,0004.53,0003.92
2022-07-03 12:09:00,,0825.6,4.99,0.00,30.0,27.6,00.0,38.7,31.7,23.8,0000.0,0008.03,0004.52,0003.91
2022-07-03 12:10:00,,0825.6,5.01,0.00,29.9,27.5,00.0,38.7,31.6,24.0,0000.0,0007.99,0004.52,0003.90
2022-07-03 12:11:00,,0825.5,5.00,0.00,29.9,27.6,00.0,38.7,31.5,24.2,0000.0,0008.42,0004.54,0003.91
2022-07-03 12:12:00,,0825.6,5.00,0.00,29.8,27.7,00.0,38.7,31.5,24.4,0000.0,0009.86,0004.54,0003.91
2022-07-03 12:13:00,,0825.5,4.99,0.00,29.8,27.8,00.0,38.7,31.5,24.3,0000.0,0010.02,0004.57,0003.93
2022-07-03 12:14:00,,0825.6,5.00,0.00,29.8,27.9,00.0,38.7,31.5,24.3,0000.0,0010.09,0004.60,0003.94
2022-07-03 12:15:00,,0825.6,5.00,0.00,29.8,28.1,00.0,38.6,31.6,24.0,0000.0,0009.93,0004.58,0003.95
2022-07-03 12:16:00,,0825.6,5.00,0.00,29.8,28.2,00.0,38.6,31.6,23.9,0000.0,0010.02,0004.60,0003.96
2022-07-03 12:17:00,,0825.6,5.00,0.00,29.8,28.3,00.0,38.6,31.6,23.9,0000.0,0010.13,0004.65,0003.97
2022-07-03 12:18:00,,0825.6,5.00,0.00,29.8,28.4,00.0,38.6,31.6,23.8,0000.0,0010.23,0004.67,0003.96
2022-07-03 12:19:00,,0825.6,4.99,0.00,29.8,28.4,00.0,38.6,31.7,23.9,0000.0,0010.26,0004.69,0003.95
2022-07-03 12:20:00,,0825.7,4.99,0.00,29.8,28.5,00.0,38.6,31.7,24.1,0000.0,0010.50,0004.72,0003.97
2022-07-03 12:21:00,,0825.6,5.01,0.00,29.8,28.5,00.0,38.6,31.7,23.8,0000.0,0010.85,0004.75,0003.98
2022-07-03 12:22:00,,0825.7,5.00,0.00,29.8,28.6,00.0,38.7,31.7,23.2,0000.0,0010.42,0004.77,0003.98
2022-07-03 12:23:00,,0825.7,5.00,0.00,29.8,28.7,00.0,38.7,31.8,23.1,0000.0,0009.01,0004.76,0003.97
2022-07-03 12:24:00,,0825.7,5.00,0.00,29.9,28.7,00.0,38.7,31.8,22.8,0000.0,0008.94,0004.74,0003.95
2022-07-03 12:25:00,,0825.7,5.00,0.00,29.9,28.7,00.0,38.7,31.7,22.7,0000.0,0008.93,0004.72,0003.93
2022-07-03 12:26:00,,0825.7,5.00,0.00,29.9,28.8,00.0,38.7,31.8,22.6,0000.0,0009.05,0004.71,0003.91
2022-07-03 12:27:00,,0825.7,5.00,0.00,29.9,28.8,00.0,38.7,31.8,22.5,0000.0,0009.17,0004.71,0003.89
2022-07-03 12:28:00,,0825.7,5.00,0.00,29.9,28.9,00.0,38.7,31.9,22.5,0000.0,0009.16,0004.68,0003.86
2022-07-03 12:29:00,,0825.6,4.99,0.00,30.0,28.9,00.0,38.7,31.9,22.4,0000.0,0009.15,0004.67,0003.85
2022-07-03 12:30:00,,0825.7,5.01,0.00,30.0,29.0,00.0,38.7,31.9,22.4,0000.0,0009.11,0004.62,0003.82
2022-07-03 12:31:00,,0825.7,5.00,0.00,30.0,29.0,00.0,38.7,31.9,22.7,0000.0,0009.01,0004.60,0003.79
2022-07-03 12:32:00,,0825.7,5.00,0.00,30.0,29.0,00.0,38.8,32.0,22.4,0000.0,0008.98,0004.53,0003.75
2022-07-03 12:33:00,,0825.6,5.00,0.00,30.0,29.0,00.0,38.8,32.0,22.1,0000.0,0008.95,0004.46,0003.72
2022-07-03 12:34:00,,0825.6,5.01,0.00,30.1,29.1,00.0,38.8,32.0,22.7,0000.0,0009.04,0004.47,0003.70
2022-07-03 12:35:00,,0825.5,5.00,0.00,30.1,29.1,00.0,38.8,32.0,22.7,0000.0,0009.04,0004.47,0003.70
2022-07-03 12:36:00,,0825.6,5.01,0.00,30.1,29.1,00.0,38.8,32.0,22.7,0000.0,0008.99,0004.45,0003.69
2022-07-03 12:37:00,,0825.6,5.00,0.00,30.1,29.1,00.0,38.8,32.0,22.4,0000.0,0008.93,0004.44,0003.68
2022-07-03 12:38:00,,0825.6,5.01,0.00,30.2,29.2,00.0,38.9,32.0,22.2,0000.0,0008.78,0004.37,0003.66
2022-07-03 12:39:00,,0825.6,4.99,0.00,30.2,29.2,00.0,38.9,32.0,22.1,0000.0,0009.05,0004.33,0003.65
2022-07-03 12:40:00,,0825.6,5.00,0.00,30.2,28.6,00.0,38.8,32.0,22.3,0000.0,0009.01,0004.31,0003.65
2022-07-03 12:41:00,,0825.6,5.00,0.00,30.1,27.7,00.0,38.8,31.8,22.3,0000.0,0009.08,0004.37,0003.65
2022-07-03 12:42:00,,0825.6,4.99,0.00,30.0,27.4,00.0,38.7,31.7,22.4,0000.0,0009.08,0004.34,0003.64
2022-07-03 12:43:00,,0825.6,5.01,0.00,29.9,27.4,00.0,38.7,31.6,22.9,0000.0,0008.65,0004.34,0003.63
2022-07-03 12:44:00,,0825.6,5.00,0.00,29.9,27.5,00.0,38.7,31.6,23.5,0000.0,0008.50,0004.33,0003.63
2022-07-03 12:45:00,,0825.6,4.99,0.00,29.8,27.6,00.0,38.7,31.5,23.6,0000.0,0008.57,0004.34,0003.62
2022-07-03 12:46:00,,0825.6,4.99,0.00,29.8,27.8,00.0,38.7,31.6,24.0,0000.0,0008.72,0004.30,0003.61
2022-07-03 12:47:00,,0825.6,5.00,0.00,29.8,27.9,00.0,38.7,31.6,24.0,0000.0,0008.75,0004.32,0003.61
2022-07-03 12:48:00,,0825.6,5.00,0.00,29.8,28.1,00.0,38.7,31.6,23.7,0000.0,0008.85,0004.31,0003.60
2022-07-03 12:49:00,,0825.6,4.99,0.00,29.8,28.2,00.0,38.6,31.6,23.4,0000.0,0009.08,0004.31,0003.60
2022-07-03 12:50:00,,0825.6,4.99,0.00,29.8,28.3,00.0,38.6,31.7,25.4,0000.0,0009.07,0004.30,0003.60
2022-07-03 12:51:00,,0825.6,5.01,0.00,29.8,28.4,00.0,38.6,31.7,26.2,0000.0,0009.22,0004.29,0003.61
2022-07-03 12:52:00,,0825.6,5.00,0.00,29.8,28.5,00.0,38.6,31.7,26.3,0000.0,0009.48,0004.27,0003.62
2022-07-03 12:53:00,,0825.6,5.00,0.00,29.8,28.6,00.0,38.6,31.7,25.9,0000.0,0009.55,0004.27,0003.64
2022-07-03 12:54:00,,0825.6,5.00,0.00,29.9,28.6,00.0,38.7,31.8,25.3,0000.0,0009.57,0004.31,0003.66
2022-07-03 12:55:00,,0825.6,5.00,0.00,29.9,28.7,00.0,38.7,31.8,24.7,0000.0,0010.25,0004.35,0003.69
2022-07-03 12:56:00,,0825.7,4.99,0.00,29.9,28.8,00.0,38.7,31.8,24.7,0000.0,0010.41,0004.37,0003.72
2022-07-03 12:57:00,,0825.7,5.00,0.00,29.9,28.8,00.0,38.7,31.8,25.2,0000.0,0010.18,0004.42,0003.74
2022-07-03 12:58:00,,0825.7,5.00,0.00,29.9,28.9,00.0,38.7,31.9,25.9,0000.0,0010.17,0004.43,0003.76
2022-07-03 12:59:00,,0825.6,5.01,0.00,30.0,28.9,00.0,38.7,31.9,26.0,0000.0,0010.00,0004.42,0003.79
